Location: Gradaro
(45.0833°N, 10.8833°E)
Time: 10:08:56
(UTC+00:00)

FENGYUN 1C DEB - Pass Details

Date: 30 June 2021
Orbit: 803 x 830 km, 98.8° (Epoch: 28 July)

Event Time Altitude Azimuth Distance (km) Brightness Sun altitude
Exits shadow 22:50:05 15° 238° (WSW) 2,049 ? -21.5°
Maximum altitude 22:52:20 19° 269° (W) 1,832 ? -21.5°
Drops below altitude 10° 22:56:07 10° 314° (NW) 2,418 ? -21.6°
Sets 22:59:10 0° 332° (NNW) 3,361 ? -21.6°
